Date,TemperatureHighF,TemperatureAvgF,TemperatureLowF,DewpointHighF,DewpointAvgF,DewpointLowF,HumidityHigh,HumidityAvg,HumidityLow,PressureMaxIn,PressureMinIn,WindSpeedMaxMPH,WindSpeedAvgMPH,GustSpeedMaxMPH,PrecipitationSumIn
2013-1-13,23,20,18,19,16,15,89,86,84,30.26,30.23,0,-999,0,0.00
2013-1-14,25,22,18,22,20,15,92,89,87,30.28,30.18,0,-999,0,0.00
2013-1-15,30,25,18,28,23,16,92,91,90,30.42,30.28,0,-999,0,0.00
2013-1-16,26,24,22,24,22,20,92,92,92,30.40,30.38,0,-999,0,0.00
2013-1-18,23,20,19,21,18,17,92,91,91,30.18,30.15,0,-999,0,0.00
2013-1-19,27,24,12,25,22,10,91,91,90,30.30,30.22,0,-999,0,0.00
2013-1-20,26,23,19,24,21,17,92,91,91,30.37,30.27,0,-999,0,0.00
2013-1-21,23,20,16,21,18,14,92,91,90,30.27,30.15,0,-999,0,0.00
2013-1-22,23,18,10,21,16,8,92,91,90,30.17,30.04,0,-999,0,0.00
2013-1-23,32,29,21,30,27,19,93,92,91,30.04,29.84,0,-999,0,0.00
2013-1-24,31,28,25,28,26,23,93,92,92,30.12,30.02,0,-999,0,0.00
2013-1-25,36,34,31,35,32,29,95,94,93,30.02,29.83,0,-999,0,0.52
2013-1-26,36,34,32,35,33,30,96,95,95,29.86,29.76,0,-999,0,0.30
2013-1-27,31,30,29,30,29,28,95,95,93,29.87,29.81,0,-999,0,0.04
2013-1-28,33,30,29,31,28,27,94,93,93,29.84,29.74,0,-999,0,0.01
2013-1-29,33,31,29,31,29,27,95,94,92,30.06,29.74,0,-999,0,0.01
2013-2-17,33,33,32,28,28,27,82,81,80,29.85,29.85,0,-999,0,0.02
2013-2-18,35,34,32,28,28,27,82,78,76,29.85,29.47,0,-999,0,0.00
2013-2-19,36,33,31,34,31,28,93,91,80,29.82,29.35,0,-999,0,0.11
2013-2-20,33,30,28,31,27,24,93,89,86,29.92,29.89,0,-999,0,0.01
2013-2-21,36,33,27,34,30,24,93,90,87,29.93,29.87,0,-999,0,0.04
2013-2-22,37,34,31,35,32,29,95,93,91,29.92,29.60,0,-999,0,0.06
2013-2-23,39,34,29,33,29,25,92,83,76,30.12,29.66,0,-999,0,0.01
2013-2-24,39,33,26,33,28,23,90,83,74,30.23,30.02,0,-999,0,0.00
2013-2-25,40,36,33,35,30,27,91,81,75,30.04,29.83,0,-999,0,0.04
2013-2-26,37,33,28,29,27,25,87,80,73,30.22,30.04,0,-999,0,0.01
2013-3-1,45,45,44,42,42,41,88,88,87,30.18,30.15,0,-999,0,0.00
2013-3-2,53,46,43,45,41,39,88,84,72,30.15,29.80,0,-999,0,0.00
2013-3-3,45,37,32,40,28,23,83,68,56,30.03,29.79,0,-999,0,0.00
2013-3-4,43,36,29,28,24,21,79,62,53,30.14,29.97,0,-999,0,0.00
2013-3-5,41,35,31,30,25,21,79,67,55,29.96,29.71,0,-999,0,0.00
2013-3-6,39,37,36,36,32,29,89,83,76,29.70,29.54,0,-999,0,0.18
2013-3-7,41,36,32,36,32,29,92,88,81,29.93,29.67,0,-999,0,0.14
2013-3-8,37,32,28,35,29,25,92,91,89,29.99,29.91,0,-999,0,0.10
2013-3-9,41,34,28,33,29,26,93,84,72,30.25,29.99,0,-999,0,0.00
2013-3-10,45,38,32,36,33,28,89,82,69,30.25,30.10,0,-999,0,0.04
2013-3-11,43,38,34,33,31,29,92,76,60,30.18,30.08,0,-999,0,0.04
2013-3-12,52,49,38,44,43,29,83,79,70,30.08,29.93,0,-999,0,0.02
2013-3-13,57,49,45,46,42,40,83,77,67,30.05,29.98,0,-999,0,0.01
2013-3-14,59,53,51,46,44,43,79,70,60,30.01,29.86,0,-999,0,0.01
2013-3-15,57,49,41,45,40,34,84,71,58,30.03,29.88,0,-999,0,0.00
2013-3-16,50,43,37,42,38,32,85,81,75,29.92,29.58,0,-999,0,0.06
2013-3-17,43,37,31,32,26,21,82,63,50,29.87,29.59,0,-999,0,0.03
2013-3-18,42,33,29,28,24,21,82,70,56,30.10,29.84,0,-999,0,0.01
2013-3-19,48,35,24,28,25,17,84,67,41,30.19,29.83,0,-999,0,0.01
2013-3-20,50,42,37,47,37,30,91,82,75,29.75,29.51,0,-999,0,0.52
2013-3-21,36,36,36,30,30,30,80,80,80,29.75,29.75,0,-999,0,0.00
2013-3-22,40,33,27,30,25,22,86,73,55,30.16,29.95,0,-999,0,0.00
2013-3-23,41,33,24,29,24,20,84,70,52,30.25,30.16,0,-999,0,0.00
2013-3-24,44,37,30,30,23,18,78,57,46,30.26,30.10,0,-999,0,0.00
2013-3-25,46,36,24,31,24,16,71,62,54,30.11,29.93,0,-999,0,0.00
2013-3-26,52,40,28,36,29,22,81,66,51,29.94,29.85,0,-999,0,0.00
2013-3-27,52,49,42,42,40,36,79,71,68,29.92,29.91,0,-999,0,0.00
2013-3-28,48,42,37,40,37,34,87,80,73,29.98,29.91,0,-999,0,0.00
2013-3-29,56,49,43,45,41,38,81,74,67,30.09,29.98,0,-999,0,0.00
2013-4-14,44,42,39,31,30,29,68,62,57,29.93,29.91,0,-999,0,0.00
2013-5-2,54,54,54,33,33,32,44,44,43,30.23,30.22,0,-999,0,0.00
2013-5-3,67,60,50,43,39,30,58,46,37,30.23,30.15,0,-999,0,0.00
2013-5-4,67,58,50,44,40,34,66,51,29,30.25,30.07,0,-999,0,0.00
2013-5-6,61,61,61,36,36,36,40,40,39,29.77,29.77,0,-999,0,0.00
2013-5-7,79,72,63,48,44,40,46,38,29,29.87,29.84,0,-999,0,0.00
2013-5-8,74,65,54,50,47,40,69,52,43,29.99,29.87,0,-999,0,0.00
2013-5-9,79,68,55,55,48,43,70,51,30,30.08,29.98,0,-999,0,0.04
2013-5-10,82,72,61,52,49,45,65,45,31,30.15,30.07,0,-999,0,0.06
2013-5-11,77,69,64,53,47,46,53,46,39,30.10,30.00,0,-999,0,0.06
2013-5-12,76,67,60,55,51,45,65,56,47,30.02,29.95,0,-999,0,0.04
2013-5-13,66,61,57,52,51,49,81,71,59,29.99,29.94,0,-999,0,0.16
2013-5-14,59,54,46,42,37,34,77,54,41,30.12,30.02,0,-999,0,0.04
2013-5-15,45,42,39,34,33,32,75,71,65,30.05,30.04,0,-999,0,0.04
2013-5-18,52,51,50,43,42,41,72,72,72,30.10,30.08,0,-999,0,0.01
2013-5-19,60,52,49,49,44,41,80,75,66,30.20,30.10,0,-999,0,0.01
2013-5-20,51,51,51,44,44,44,76,76,76,30.20,30.20,0,-999,0,0.00
2013-5-27,63,59,51,47,47,46,84,65,55,29.79,29.78,0,-999,0,0.07
2013-5-28,60,54,50,50,48,46,87,79,70,29.79,29.77,0,-999,0,0.17
2013-5-29,60,51,46,49,45,41,88,79,67,29.83,29.69,0,-999,0,0.15
2013-5-30,56,52,49,46,42,39,88,69,58,30.07,29.83,0,-999,0,0.15
2013-5-31,65,57,43,46,41,37,79,57,41,30.22,30.07,0,-999,0,0.00
2013-6-1,66,56,43,47,42,36,75,61,48,30.20,29.96,0,-999,0,0.00
2013-6-2,59,53,47,51,47,40,88,79,66,29.96,29.88,0,-999,0,0.20
2013-6-3,67,53,43,52,46,40,91,77,54,30.01,29.90,0,-999,0,0.01
2013-6-4,71,62,51,51,48,45,85,61,44,30.10,30.02,0,-999,0,0.00
2013-6-5,78,66,51,53,50,45,82,58,39,30.03,29.92,0,-999,0,0.00
2013-6-6,81,73,64,56,52,48,60,49,41,29.96,29.87,0,-999,0,0.00
2013-6-7,77,66,61,53,50,41,69,57,38,29.90,29.84,0,-999,0,0.00
2013-6-8,69,57,52,46,41,39,60,55,44,30.00,29.89,0,-999,0,0.00
2013-6-9,69,62,57,43,37,34,54,40,33,29.90,29.82,0,-999,0,0.00
2013-6-10,72,65,52,44,40,34,51,40,33,29.83,29.73,0,-999,0,0.00
2013-6-11,66,61,53,47,43,38,58,52,48,29.97,29.86,0,-999,0,0.00
2013-6-12,53,49,48,39,37,36,66,63,58,29.99,29.96,0,-999,0,0.00
2013-6-18,60,58,57,53,51,49,86,78,68,29.85,29.77,0,-999,0,0.10